[[{"header":{"parameterUnit":"m.s-1","parameterCategory":1,"la1":30.2991,"la2":30.254,"lo1":-89.0895,"lo2":-89.0444,"dy":0.0017,"dx":0.0017,"nx":28,"ny":28,"refTime":"2025-09-14T09:00:00:Z","depth":0,"parameterNumber":2,"parameterNumberName":"U-component_of_WINDS"},"data":[0,0,0,0,0,0,0,0,0,0,0,0,0,0,0,0,0,0,0,0,0,0,0,0,0,0,0,0,0,0,0,0,0,0,0,0,0,0,0,0,0,0,0,0,0,0,0,0,0,0,0,0,0,0,0,0,0,0,-2.5622,-2.5622,0,-2.5652,-2.5653,-2.5653,-2.5598,-2.5597,-2.5595,-2.5593,-2.5624,-2.5627,-2.5629,0,0,0,0,0,0,0,0,0,0,0,0,0,-2.5515,-2.5517,-2.5622,-2.5622,-2.5622,-2.5652,-2.5653,-2.5653,-2.5599,-2.5596,-2.5594,-2.5592,-2.5623,-2.5626,-2.5629,0,0,0,0,0,0,0,0,0,0,0,0,0,-2.5555,-2.5518,-2.5622,-2.5599,-2.5597,-2.5652,-2.5653,-2.5653,-2.5599,-2.5596,-2.5594,-2.5591,-2.5622,-2.5626,-2.563,-2.5709,0,0,-2.5642,-2.5643,0,0,0,0,0,0,0,0,-2.5553,-2.5559,-2.5602,-2.56,-2.5599,-2.5619,-2.5627,-2.5672,-2.56,-2.5598,-2.5593,-2.559,-2.5625,-2.5628,-2.564,-2.571,-2.5711,-2.5642,-2.5644,-2.5646,-2.5647,0,0,0,0,0,0,0,-2.555,-2.5557,-2.5634,-2.5602,-2.5601,-2.5587,-2.559,-2.5635,-2.5627,-2.5598,-2.5594,-2.5599,-2.5623,-2.5636,-2.564,-2.5712,-2.5642,-2.5645,-2.5647,-2.5649,-2.5848,-2.585,0,0,0,0,0,0,-2.555,-2.5555,-2.5633,-2.5635,-2.5569,-2.5591,-2.5594,-2.5615,-2.5626,-2.5625,-2.5601,-2.5596,-2.5631,-2.5636,-2.5641,-2.5733,-2.5646,-2.5649,-2.5652,-2.5845,-2.5848,-2.5851,0,0,0,0,0,0,-2.5548,-2.5558,-2.5632,-2.5594,-2.5602,-2.5596,-2.562,-2.5617,-2.563,-2.5628,-2.5626,-2.5616,-2.5629,-2.5636,-2.5692,-2.5734,-2.5651,-2.5655,-2.5841,-2.5846,-2.585,-2.5919,0,0,0,0,0,0,-2.5545,-2.5557,-2.5587,-2.5595,-2.5605,-2.5682,-2.5622,-2.562,-2.5637,-2.5631,-2.5642,-2.5641,-2.5628,-2.5687,-2.5696,-2.5737,-2.5658,-2.5837,-2.5843,-2.5848,-2.5913,-2.5925,-2.5936,0,0,0,0,0,-2.5542,-2.5606,-2.5589,-2.5599,-2.5642,-2.5685,-2.569,-2.5674,-2.5641,-2.567,-2.5669,-2.564,-2.5728,-2.5693,-2.5703,-2.5746,-2.5835,-2.5842,-2.5848,-2.5908,-2.5923,-2.5936,0,0,0,0,0,0,-2.5603,-2.5606,-2.5588,-2.5656,-2.5671,-2.5676,-2.5713,-2.569,-2.5714,-2.5708,-2.5686,-2.5689,-2.575,-2.5754,-2.5715,-2.5823,-2.5776,-2.5785,-2.5818,-2.5832,-2.5843,-2.5841,-2.5661,0,0,0,0,0,-2.5624,-2.5659,-2.566,-2.572,-2.5728,-2.572,-2.5738,-2.5724,-2.5738,-2.5743,-2.5746,-2.5761,-2.5791,-2.5812,-2.584,-2.5914,-2.5915,-2.5948,-2.596,-2.5969,-2.5977,-2.6015,-2.603,-2.5874,-2.5873,-2.5873,0,0,-2.5669,-2.5675,-2.5698,-2.5733,-2.5742,-2.5778,-2.5725,-2.5766,-2.5792,-2.575,-2.5803,-2.5806,-2.582,-2.5885,-2.5914,-2.5891,-2.6021,-2.5978,-2.5985,-2.5988,-2.6024,-2.6039,-2.6052,-2.5878,-2.5877,-2.5877,0,0,-2.5768,-2.5777,-2.5827,-2.5838,-2.5853,-2.5847,-2.5859,-2.5867,-2.5868,-2.5921,-2.5889,-2.5921,-2.5974,-2.5986,-2.5999,-2.6103,-2.6077,-2.6113,-2.6172,-2.621,-2.6222,-2.6233,-2.6269,-2.6283,-2.6121,-2.6121,-2.6121,0,-2.5821,-2.5874,-2.5856,-2.5899,-2.5915,-2.5878,-2.5929,-2.594,-2.5964,-2.5976,-2.5949,-2.6015,-2.6023,-2.609,-2.6115,-2.6127,-2.614,-2.6111,-2.6222,-2.6233,-2.6242,-2.6277,-2.6291,-2.6125,-2.6125,-2.6124,-2.6124,0,-2.5939,-2.5976,-2.6016,-2.6039,-2.6059,-2.6106,-2.6095,-2.6117,-2.6102,-2.6099,-2.6153,-2.6161,-2.619,-2.6205,-2.619,-2.627,-2.6254,-2.6226,-2.6178,-2.6262,-2.6294,-2.6307,-2.6131,-2.6129,-2.6128,-2.6127,0,0,-2.6077,-2.609,-2.6105,-2.6115,-2.6129,-2.6157,-2.6202,-2.623,-2.625,-2.6268,-2.6305,-2.6351,-2.6324,-2.6339,-2.6325,-2.6358,-2.6439,-2.6325,-2.6325,-2.6345,-2.6527,-2.6548,-2.6564,-2.6423,-2.6425,-2.6427,-2.6526,0,-2.6175,-2.6252,-2.6237,-2.6313,-2.6347,-2.6313,-2.6352,-2.6364,-2.6363,-2.6391,-2.6389,-2.6422,-2.6384,-2.6393,-2.6424,-2.6423,-2.6475,-2.6416,-2.6456,-2.6458,-2.6453,-2.6581,-2.6603,-2.6696,-2.6538,-2.654,-2.6542,0,-2.63,-2.6322,-2.6401,-2.6409,-2.6423,-2.6458,-2.6483,-2.651,-2.6524,-2.652,-2.6537,-2.6517,-2.6562,-2.6514,-2.6575,-2.6534,-2.655,-2.6552,-2.6555,-2.6558,-2.6504,-2.6586,-2.6725,-2.6738,-2.6561,-2.656,-2.6558,0,-2.6392,-2.6441,-2.6495,-2.6505,-2.6516,-2.6541,-2.6547,-2.6558,-2.6576,-2.6598,-2.6609,-2.6635,-2.665,-2.6671,-2.6658,-2.6625,-2.6721,-2.6672,-2.6719,-2.6719,-2.674,-2.6739,-2.6882,-2.6752,-2.6751,-2.6751,-2.6751,0,-2.6503,-2.6552,-2.6536,-2.6569,-2.6623,-2.6605,-2.666,-2.6661,-2.6671,-2.6704,-2.6676,-2.6707,-2.6689,-2.6719,-2.671,-2.6761,-2.6768,-2.6766,-2.6763,-2.6768,-2.6768,-2.6777,-2.677,-2.6755,-2.6754,-2.6753,-2.6753,0,-2.6614,-2.6606,-2.6662,-2.6667,-2.667,-2.671,-2.6715,-2.6745,-2.6741,-2.6783,-2.6791,-2.6785,-2.6819,-2.6808,-2.6845,-2.6838,-2.6903,-2.6892,-2.6899,-2.6896,-2.6942,-2.6938,-2.7096,-2.7116,-2.6973,-2.6975,-2.6976,0,-2.6685,-2.6722,-2.6732,-2.6752,-2.676,-2.6792,-2.681,-2.6793,-2.6813,-2.6832,-2.686,-2.6891,-2.6915,-2.697,-2.6968,-2.6996,-2.6985,-2.7039,-2.6989,-2.6993,-2.6985,-2.6982,-2.6986,-2.7048,-2.705,-2.7051,-2.7052,0,-2.6812,-2.6806,-2.6833,-2.6858,-2.688,-2.69,-2.6917,-2.6934,-2.6919,-2.6943,-2.6977,-2.6995,-2.7032,-2.7063,-2.7088,-2.7094,-2.7071,-2.7068,-2.708,-2.7086,-2.7088,-2.7086,-2.6925,-2.7064,-2.7063,-2.7062,-2.7062,-2.7061,-2.6905,-2.6936,-2.6948,-2.6978,-2.6989,-2.7006,-2.7034,-2.7034,-2.7062,-2.709,-2.7079,-2.7118,-2.713,-2.7161,-2.7171,-2.72,-2.718,-2.7197,-2.7202,-2.7206,-2.7212,-2.7083,-2.7205,-2.7205,-2.7204,-2.7204,-2.7204,0,-2.7029,-2.7035,-2.7064,-2.7088,-2.7112,-2.7088,-2.7106,-2.7128,-2.7162,-2.7176,-2.72,-2.7238,-2.7268,-2.7269,-2.7297,-2.7321,-2.7311,-2.7329,-2.7326,-2.7328,-2.7229,-2.7215,-2.7336,-2.7336,-2.7336,-2.7336,-2.7336,-2.7336,-2.7097,-2.7148,-2.7144,-2.72,-2.7205,-2.7243,-2.7255,-2.727,-2.728,-2.7324,-2.7349,-2.7349,-2.7358,-2.7386,-2.7412,-2.7412,-2.7423,-2.7445,-2.7441,-2.7348,-2.7335,-2.7322,-2.7309,-2.7448,-2.7448,-2.7537,-2.7538,-2.7538]},{"header":{"parameterUnit":"m.s-1","parameterCategory":1,"la1":30.2991,"la2":30.254,"lo1":-89.0895,"lo2":-89.0444,"dy":0.0017,"dx":0.0017,"nx":28,"ny":28,"refTime":"2025-09-14T09:00:00:Z","depth":0,"parameterNumber":3,"parameterNumberName":"V-component_of_WINDS"},"data":[0,0,0,0,0,0,0,0,0,0,0,0,0,0,0,0,0,0,0,0,0,0,0,0,0,0,0,0,0,0,0,0,0,0,0,0,0,0,0,0,0,0,0,0,0,0,0,0,0,0,0,0,0,0,0,0,0,0,3.2374,3.2374,0,3.2372,3.2372,3.2372,3.2318,3.2316,3.2315,3.2314,3.2311,3.2312,3.2313,0,0,0,0,0,0,0,0,0,0,0,0,0,3.2333,3.2334,3.2374,3.2374,3.2374,3.2372,3.2372,3.2372,3.2318,3.2316,3.2315,3.2313,3.231,3.2312,3.2313,0,0,0,0,0,0,0,0,0,0,0,0,0,3.2343,3.2335,3.2374,3.2347,3.2345,3.2372,3.2372,3.2372,3.2318,3.2316,3.2314,3.2312,3.231,3.2312,3.2313,3.2366,0,0,3.2319,3.232,0,0,0,0,0,0,0,0,3.2342,3.2344,3.2351,3.2349,3.2346,3.2343,3.2356,3.237,3.2319,3.2328,3.2314,3.2311,3.2323,3.2324,3.2328,3.2366,3.2366,3.2319,3.232,3.2321,3.2322,0,0,0,0,0,0,0,3.2342,3.2344,3.2373,3.2351,3.2349,3.2335,3.2334,3.2358,3.2337,3.2327,3.2323,3.2324,3.2321,3.2326,3.2327,3.2366,3.2319,3.2321,3.2322,3.2323,3.2446,3.2448,0,0,0,0,0,0,3.2345,3.2344,3.2373,3.2373,3.2339,3.2338,3.2337,3.2346,3.2337,3.2334,3.2326,3.2321,3.2324,3.2325,3.2327,3.2386,3.2321,3.2323,3.2324,3.2444,3.2446,3.2449,0,0,0,0,0,0,3.2344,3.2348,3.2373,3.2358,3.236,3.2341,3.2352,3.2347,3.2352,3.2336,3.2332,3.2334,3.2322,3.2324,3.2356,3.2386,3.2324,3.2325,3.2441,3.2445,3.2448,3.2507,0,0,0,0,0,0,3.2343,3.2348,3.2368,3.2358,3.2361,3.2403,3.2354,3.2349,3.2355,3.2349,3.2343,3.234,3.2321,3.2354,3.2358,3.2387,3.2327,3.2438,3.2443,3.2447,3.2502,3.2512,3.252,0,0,0,0,0,3.2342,3.2385,3.2369,3.2373,3.2385,3.2405,3.2406,3.2384,3.2358,3.2377,3.2367,3.234,3.2383,3.2358,3.2362,3.2392,3.2436,3.2441,3.2446,3.2498,3.251,3.252,0,0,0,0,0,0,3.2398,3.2383,3.2365,3.2406,3.2407,3.2396,3.2419,3.2397,3.2406,3.24,3.2372,3.2371,3.2407,3.2403,3.2376,3.2442,3.2405,3.2411,3.2443,3.2454,3.2463,3.2462,3.2328,0,0,0,0,0,3.2415,3.2432,3.2419,3.2456,3.2458,3.2439,3.2447,3.243,3.2429,3.2429,3.2421,3.2422,3.2435,3.2445,3.2456,3.2502,3.2499,3.2525,3.2534,3.2541,3.2546,3.2569,3.258,3.2465,3.2465,3.2465,0,0,3.245,3.2445,3.2457,3.2467,3.2466,3.2484,3.2439,3.2461,3.2474,3.2432,3.2461,3.2456,3.2455,3.2494,3.2511,3.2492,3.2578,3.2548,3.2554,3.2554,3.2575,3.2586,3.2596,3.2468,3.2468,3.2467,0,0,3.2524,3.2522,3.2552,3.2552,3.255,3.2538,3.2545,3.2537,3.2532,3.2561,3.253,3.2546,3.257,3.257,3.2573,3.2648,3.2623,3.2653,3.2698,3.2721,3.273,3.2738,3.2763,3.2772,3.2658,3.2658,3.2658,0,3.2568,3.2594,3.2571,3.2594,3.2599,3.2563,3.2593,3.2594,3.2597,3.2601,3.258,3.2609,3.2606,3.2644,3.2662,3.2667,3.2674,3.2652,3.2731,3.2738,3.2745,3.2769,3.2778,3.2662,3.2661,3.2661,3.2661,0,3.2647,3.2666,3.2691,3.2694,3.2702,3.2729,3.271,3.2721,3.2704,3.2693,3.2723,3.2719,3.2728,3.2736,3.272,3.2772,3.276,3.2736,3.2697,3.276,3.2781,3.279,3.2667,3.2666,3.2665,3.2664,0,0,3.2753,3.2744,3.2753,3.2754,3.275,3.2764,3.279,3.2799,3.2808,3.2812,3.2832,3.2854,3.2831,3.2835,3.2818,3.2839,3.2896,3.2811,3.2811,3.2825,3.2951,3.2968,3.2979,3.2881,3.2882,3.2884,3.2951,0,3.2823,3.2864,3.2845,3.2889,3.2905,3.2872,3.2894,3.2894,3.2886,3.2899,3.2889,3.2904,3.2874,3.2876,3.2895,3.2885,3.292,3.288,3.2897,3.2898,3.2896,3.299,3.3008,3.3072,3.2959,3.2961,3.2962,0,3.2908,3.2915,3.2961,3.2954,3.296,3.298,3.2987,3.3,3.2999,3.2992,3.2997,3.2976,3.3,3.2964,3.2996,3.2969,3.2975,3.2972,3.2974,3.2973,3.2932,3.299,3.3092,3.31,3.2975,3.2974,3.2973,0,3.2979,3.3,3.3029,3.3031,3.3024,3.3039,3.3037,3.3035,3.3041,3.3048,3.3052,3.3061,3.3066,3.3074,3.3056,3.3031,3.309,3.3053,3.3083,3.3084,3.3095,3.3094,3.3197,3.3103,3.3103,3.3103,3.3103,0,3.3057,3.3085,3.3061,3.3079,3.311,3.3088,3.3119,3.3114,3.3112,3.3128,3.3101,3.3117,3.3093,3.3107,3.3093,3.3121,3.3124,3.3118,3.3114,3.3119,3.312,3.3121,3.3115,3.3106,3.3105,3.3105,3.3104,0,3.3139,3.3124,3.3154,3.3145,3.3144,3.3167,3.316,3.3176,3.3166,3.3187,3.3191,3.3175,3.319,3.3173,3.3187,3.3178,3.3215,3.3205,3.3215,3.3211,3.3242,3.3238,3.3347,3.336,3.326,3.3261,3.3262,0,3.3189,3.321,3.3204,3.3213,3.3212,3.3227,3.3234,3.3213,3.3221,3.3223,3.3239,3.3251,3.3259,3.3284,3.3274,3.3284,3.3273,3.3311,3.3274,3.3279,3.3271,3.3269,3.3271,3.3317,3.3319,3.332,3.332,0,3.3278,3.3269,3.328,3.3288,3.3297,3.3303,3.3306,3.3315,3.3294,3.3305,3.3319,3.3326,3.334,3.3352,3.3359,3.3357,3.3335,3.3332,3.334,3.3344,3.3348,3.3344,3.3233,3.3329,3.3328,3.3328,3.3327,3.3327,3.3344,3.3361,3.3359,3.3372,3.3372,3.3376,3.3391,3.3383,3.3395,3.3404,3.3391,3.3409,3.3408,3.3416,3.3416,3.343,3.3413,3.3424,3.3427,3.3429,3.3433,3.3348,3.3431,3.3431,3.3431,3.343,3.343,0,3.3429,3.3427,3.3439,3.3444,3.3455,3.3434,3.3437,3.3447,3.3463,3.3464,3.3473,3.3489,3.3501,3.3493,3.3503,3.3515,3.3505,3.3518,3.3516,3.3515,3.3448,3.3439,3.3526,3.3526,3.3526,3.3526,3.3526,3.3526,3.3475,3.3502,3.3493,3.3521,3.3518,3.3535,3.3538,3.3542,3.3542,3.3562,3.3571,3.3566,3.3563,3.3573,3.3583,3.358,3.3584,3.36,3.3593,3.353,3.352,3.3511,3.3503,3.3602,3.3602,3.3659,3.366,3.366]}]]